Location: Rowland
(34.5359°N, 79.2929°W)
Time: 02:59:48
(UTC+00:00)

Transit 2A Rocket - Pass Details

Date: 09 October 2022
Orbit: 588 x 912 km, 66.7° (Epoch: 08 December)

Event Time Altitude Azimuth Distance (km) Brightness Sun altitude
Rises 07:47:13 0° 161° (SSE) 2,857 - -43.1°
Reaches altitude 10° 07:50:37 10° 133° (SE) 1,925 - -42.5°
Maximum altitude 07:52:34 13° 106° (ESE) 1,732 - -42.1°
Drops below altitude 10° 07:54:30 10° 79° (ENE) 1,913 - -41.8°
Exits shadow 07:55:38 - 67° (ENE) 2,163 8.1 -41.5°
Sets 07:57:51 0° 51° (NE) 2,823 8.8 -41.1°
